Location: Unspecified
(0.0000°N, 0.0000°E)
Time: 01:47:25
(UTC+00:00)

Falcon 9 debris - Pass Details

Date: 28 May 2022
Orbit: 386 x 392 km, 53.0° (Epoch: 29 June)

Event Time Altitude Azimuth Distance (km) Brightness Sun altitude
Exits shadow 03:52:24 13° 92° (E) 1,239 ? -28.8°
Drops below altitude 10° 03:53:07 10° 81° (E) 1,420 ? -28.7°
Enters shadow 04:50:08 -68° 213° (SSW) 12,268 ? -15.6°
